Regional Weather Roundup
Issued by NWS Grand Forks, ND

Home | Current Version | Previous Version | Graphics & Text | Print | Product List | Glossary On
Versions: 1 2 3 4 5 6 7 8 9 10 11 12 13 14 15 16 17 18 19 20 21 22 23 24 25 26 27 28 29 30 31 32 33 34 35 36 37 38 39 40 41 42 43 44 45 46 47 48 49 50
000
ASUS43 KFGF 212031
RWRFGF
PRAIRIE TO PINES  WEATHER ROUNDUP
NATIONAL WEATHER SERVICE EASTERN NORTH DAKOTA/GRAND FORKS ND
300 PM CDT SUN MAY 21 2017

 **SATELLITE DATA USED TO AUGMENT SKY COVER AT AUTOMATED STATIONS**
 *****  WEATHER ACROSS EASTERN NORTH DAKOTA  *****

CITY           SKY/WX    TMP DP  RH WIND       PRES   REMARKS
GRAND FORKS    PTSUNNY   51  44  77 N16       29.89F
GRAND FRKS AFB CLOUDY    50  43  76 N17       29.91S
DEVILS LAKE    FAIR      54  39  57 N18       29.94F
FARGO          CLOUDY    50  41  71 NW17G26   29.91S
WAHPETON ARPT  CLOUDY    46  39  76 NW18      29.93S
$$

 ***** WEATHER ACROSS CENTRAL AND WESTERN NORTH DAKOTA  *****

CITY           SKY/WX    TMP DP  RH WIND       PRES   REMARKS
BISMARCK       FAIR      71  31  22 NW13G25   29.93F
MINOT          FAIR      69  30  23 N17G30    29.92F
JAMESTOWN      FAIR      54  41  61 N20G29    29.94F
MINOT AFB      FAIR      68  32  26 N14G21    29.91F
GARRISON         N/A     66  30  26 N20G31    29.91F
WILLISTON      LGT RAIN  61  44  53 W12       29.96S
DICKINSON      FAIR      67  30  25 NW16G23   29.95F
HETTINGER      LGT RAIN  52  43  71 W35G44    30.03R
$$

 *****  OTHER AIRPORT OBSERVATIONS IN OUR AREA  *****

CITY           SKY/WX    TMP DP  RH WIND       PRES   REMARKS
WALHALLA       NOT AVBL
GRAFTON AIRPOR CLOUDY    48  46  93 NW14      29.92S
VALLEY CITY AR NOT AVBL
CANDO          NOT AVBL
CAVALIER APRT  MOCLDY    50  45  81 NW14      29.90F
GWINNER          N/A    N/A N/A N/A MISG        N/A
SHEYENNE NWR     N/A     51  42  71 N10       29.95S
ROLLA          CLOUDY    54  34  47 N13G22    29.95F
 ***** THE ABOVE OBSERVATIONS ARE NON NWS ARE NOT QUALITY
       CONTROLLED AND MAY MIS-REPORT RAIN FOR SNOW...
$$

  *****  WEATHER ACROSS NORTHERN MINNESOTA  *****

CITY           SKY/WX    TMP DP  RH WIND       PRES   REMARKS
FLAG ISLAND    CLOUDY    46  43  87 N8        29.82S FOG
WARROAD        PTSUNNY   46  43  87 NW7       29.84S
ROSEAU         CLOUDY    46  43  87 NW9       29.84S
HALLOCK        PTSUNNY   50  45  81 N12       29.88S
THF RVR FALLS  CLOUDY    47  40  76 NW14      29.87S
BAUDETTE       CLOUDY    48  42  80 N6        29.82S
WASKISH        CLOUDY    46  43  87 NW8       29.82S
CROOKSTON      CLOUDY    48  43  81 N14       29.89S
STEPHEN NDAWN    N/A     48  43  81 N14         N/A
GREENBUSH NDAW   N/A     48  45  87 NW12        N/A
$$
  *****  WEATHER ACROSS CENTRAL AND WEST MINNESOTA  *****

CITY           SKY/WX    TMP DP  RH WIND       PRES   REMARKS
FOSSTON        CLOUDY    43  39  87 NW13      29.87R FOG
BEMIDJI        LGT RAIN  44  42  93 NW10      29.84R
PARK RAPIDS    LGT RAIN  46  39  76 W13       29.84R
ELBOW LAKE     RAIN      43  40  90 NW17G24   29.92S
WADENA         CLOUDY    43  39  87 NW13G21   29.86S
DETROIT LAKES  CLOUDY    43  41  93 NW16      29.89S FOG
MOORHEAD       PTSUNNY   48  43  81 NW17      29.92R
FERGUS FALLS   CLOUDY    45  43  93 N21       29.91S
MORRIS MN      CLOUDY    45  41  87 NW21G28   29.92S
STAPLES        CLOUDY    45  43  93 NW10      29.85R
$$
  *****  WEATHER ELSEWHERE ACROSS MINNESOTA  *****

CITY           SKY/WX    TMP DP  RH WIND       PRES   REMARKS
DULUTH         DRIZZLE   46  44  93 CALM      29.77R FOG
INTRNTL FALLS  LGT RAIN  47  43  86 N5        29.79F FOG
ELY            DRIZZLE   46  45  93 CALM      29.76S
CLOQUET        CLOUDY    46  45  93 CALM      29.77F
WHEATON        PTSUNNY   48  39  71 NW13G22   29.95S
BRAINERD       CLOUDY    46  42  86 W12       29.83R
HIBBING        CLOUDY    47  45  93 VRB3      29.78R
ALEXANDRIA     CLOUDY    43  39  86 NW15      29.89R
SAINT CLOUD    LGT RAIN  47  44  90 NW17      29.84R
MINNEAPOLIS    CLOUDY    50  44  80 W14G22    29.83R
$$

  *****  WEATHER ACROSS SOUTH DAKOTA  *****

CITY           SKY/WX    TMP DP  RH WIND       PRES   REMARKS
SIOUX FALLS    PTSUNNY   53  43  68 NW21G29   30.01S
BROOKINGS      CLOUDY    49  41  74 NW21      29.98S
WATERTOWN      CLOUDY    49  39  68 NW20      29.96S
HURON          FAIR      62  42  47 NW17      30.00F
SISSETON         N/A     51  44  77 N20       29.94R
ABERDEEN       FAIR      59  38  45 N16       29.98F
MITCHELL       PTSUNNY   60  41  49 N18G26    30.04F
PIERRE         FAIR      66  34  30 NW12      30.01F
MOBRIDGE       FAIR      70  32  24 NW13G22   29.93F
RAPID CITY     PTSUNNY   67  37  33 N13G23    30.05F
$$

  *****  SOME WEATHER IN NEARBY STATES *****

CITY           SKY/WX    TMP DP  RH WIND       PRES   REMARKS
GLASGOW MT     PTSUNNY   70  32  24 N18G33    30.04F
GREAT FALLS MT FAIR      68  35  29 W12       30.19F
CHEYENNE WY    FAIR      53  37  54 W9G16     30.22S
SCOTTSBLUFF NE FAIR      64  43  46 N7        30.13F
OMAHA NE       FAIR      65  42  43 NW15G28   30.06F
DES MOINES IA  PTSUNNY   56  41  57 W20G28    30.04R
DAVENPORT IA   CLOUDY    50  41  71 W20G30    30.02R
CHICAGO IL     CLOUDY    59  46  62 W15G22    29.95R
EAU CLAIRE WI  CLOUDY    49  45  86 SW15      29.81R
LA CROSSE WI   CLOUDY    52  43  71 SW17      29.89R
$$

  *****  SOME NATIONAL WEATHER *****

CITY           SKY/WX    TMP DP  RH WIND       PRES   REMARKS
LA GUARDIA NY  FAIR      67  31  26 S16G23    30.32F
RALEIGH NC     PTSUNNY   75  64  68 E6        30.17F
ATLANTA GA     PTSUNNY   80  66  62 W5        30.08F
NEW ORLEANS LA PTSUNNY   74  70  87 S6        30.04F
OKLAHOMA CITY  FAIR      73  45  36 CALM      30.15F
ALBUQUERQUE NM FAIR      75  20  12 VRB6      30.13F
SALT LAKE CITY PTSUNNY   63  46  54 VRB3      30.20F
LOS ANGELES CA FAIR      72  59  63 W12       29.92S
BOISE ID       FAIR      71  44  37 N6        30.20F
SEATTLE WA     FAIR      73  53  49 N12       30.22F
$$

*** WEATHER ACROSS MANITOBA...SASKATCHEWAN AND ONTARIO ***
                ***ONTARIO***

CITY           SKY/WX    TMP DP  RH WIND       PRES   REMARKS
GERALDTON      LGT RAIN  46  45  93 E12G21    29.87F
THUNDER BAY    LGT RAIN  45  45 100 E14G21    29.77F FOG
SIOUX LOOKOUT  LGT RAIN  45  43  93 NE5       29.83F FOG
TORONTO        LGT RAIN  55  54  94 E7        30.00F
BIG TROUT LK   MOSUNNY   59  28  31 E12G24    30.03F
PICKLE LAKE    LGT RAIN  50  36  57 E24G35    29.89S
DRYDEN         LGT RAIN  46  45  93 E10       29.81S
KENORA         CLOUDY    46  45  93 N8        29.83S
$$
                *** MANITOBA***

CITY           SKY/WX    TMP DP  RH WIND       PRES   REMARKS
BRANDON        CLOUDY    55  37  50 NE18G25   29.97S
DAUPHIN        MOSUNNY   61  37  41 E9        29.98F
ISLAND LAKE    CLOUDY    63  32  31 E15G26    29.98F
PILOT MOUND      N/A     52  41  66 N17G24      N/A
THE PAS        MOSUNNY   66  30  26 N8        29.98F
THOMPSON       CLOUDY    70  30  23 E3G20     30.02F
WINNIPEG       LGT RAIN  50  43  76 N20G25    29.89F
LYNN LAKE      MOSUNNY   72  30  21 SE10G22   30.04S
CHURCHILL      PTSUNNY   41  34  75 N8        30.17F
GILLAM         CLOUDY    68  36  30 NE7       30.05F
$$
                ***SASKATCHEWAN***

CITY           SKY/WX    TMP DP  RH WIND       PRES   REMARKS
ESTEVAN        MOSUNNY   68  27  21 N14G20    29.93F
KINDERSLEY     MOSUNNY   70  32  24 NW12G24   30.05F
LLOYDMINSTER   PTSUNNY   68  34  28 N12G21    30.06F
PRINCE ALBERT  PTSUNNY   66  39  37 NW10      29.99S THUNDER
REGINA         PTSUNNY   70  32  24 N12G24    29.96F
YORKTON        MOSUNNY   70  28  21 VRB12G20  29.92F
N. BATTLEFORD  MOSUNNY   72  36  26 NW12G25   30.04F
LA RONGE       PTSUNNY   59  46  63 CALM      30.07R
SASKATOON      PTSUNNY   70  37  30 NW8       30.02F
SWIFT CURRENT  LGT RAIN  59  39  47 NW16G53   30.06R
$$
NOTE: THESE ARE AUTOMATED STATIONS WITH LIMITED QUALITY CONTROL
      "FAIR" INDICATES FEW OR NO CLOUDS BELOW 12,000 FEET WITH NO
      SIGNIFICANT WEATHER AND/OR OBSTRUCTIONS TO VISIBILITY.
      SKY/WX - SKY CONDITION AND SIGNIFICANT WEATHER.
      TMP - AIR TEMPERATURE.    DP   - DEWPOINT TEMPERATURE.
      RH  - RELATIVE HUMIDITY.  PRES - PRESSURE.
      HX  - HEAT INDEX.         WCI  - WIND CHILL INDEX.
$




USA.gov is the U.S. government's official web portal to all federal, state and local government web resources and services.